When you browse on this site, cookies collect data to enhance your experience and personalize the content and advertising you see.
Visit our Privacy Policy to learn more. By continuing to use the site, you agree to this use of cookies and data.
  • In United Kingdom
  • List of Countries
  • For 7 days
  • Water Temperature
  • Weather Map
  • Weather Widgets
  • user-avatar
    Login

    Hourly Weather Innsbruck

    Today, 19 January, Sunday

    Time Temperature Precipitation Wind Pressure Humidity
    00:00 -12°C° 0 mm 1 mps 595 mmHg 90%
    01:00 -12°C° 0 mm 1 mps 595 mmHg 87%
    02:00 -12°C° 0.1 mm 1 mps 595 mmHg 87%
    03:00 -12°C° 0.1 mm 1 mps 595 mmHg 87%
    04:00 -12°C° 0.1 mm 1 mps 595 mmHg 87%
    05:00 -12°C° 0.1 mm 1 mps 595 mmHg 88%
    06:00 -12°C° 0.1 mm 1 mps 595 mmHg 88%
    07:00 -12°C° 0.1 mm 1 mps 596 mmHg 89%
    08:00 -11°C° 0.2 mm 1 mps 596 mmHg 88%
    09:00 -11°C° 0.2 mm 1 mps 597 mmHg 88%
    10:00 -10°C° 0.2 mm 1 mps 597 mmHg 87%
    11:00 -9°C° 0.2 mm 1 mps 598 mmHg 85%
    12:00 -10°C° 0.2 mm 2 mps 598 mmHg 82%
    13:00 -9°C° 0.2 mm 2 mps 599 mmHg 80%
    14:00 -9°C° 0.1 mm 2 mps 599 mmHg 81%
    15:00 -10°C° 0.1 mm 2 mps 599 mmHg 83%
    16:00 -10°C° 0.1 mm 2 mps 599 mmHg 84%
    17:00 -12°C° 0.1 mm 2 mps 599 mmHg 87%
    18:00 -11°C° 0.1 mm 1 mps 599 mmHg 90%
    19:00 -12°C° 0.1 mm 1 mps 599 mmHg 93%
    20:00 -12°C° 0 mm 1 mps 600 mmHg 93%
    21:00 -13°C° 0 mm 1 mps 600 mmHg 93%
    22:00 -13°C° 0 mm 1 mps 600 mmHg 93%
    23:00 -14°C° 0 mm 1 mps 600 mmHg 92%

    Tomorrow, 20 January, Monday

    Time Temperature Precipitation Wind Pressure Humidity
    00:00 -14°C° 0 mm 1 mps 600 mmHg 91%
    01:00 -14°C° 0 mm 1 mps 601 mmHg 89%
    02:00 -14°C° 0 mm 1 mps 600 mmHg 87%
    03:00 -15°C° 0 mm 1 mps 600 mmHg 85%
    04:00 -15°C° 0 mm 1 mps 600 mmHg 82%
    05:00 -15°C° 0 mm 1 mps 601 mmHg 82%
    06:00 -15°C° 0 mm 1 mps 601 mmHg 81%
    07:00 -15°C° 0 mm 1 mps 601 mmHg 81%
    08:00 -13°C° 0 mm 1 mps 602 mmHg 77%
    09:00 -12°C° 0 mm 1 mps 603 mmHg 73%
    10:00 -11°C° 0 mm 1 mps 603 mmHg 69%
    11:00 -9°C° 0 mm 1 mps 604 mmHg 65%
    12:00 -8°C° 0 mm 1 mps 604 mmHg 60%
    13:00 -7°C° 0 mm 1 mps 604 mmHg 56%
    14:00 -8°C° 0 mm 1 mps 604 mmHg 59%
    15:00 -8°C° 0 mm 1 mps 604 mmHg 62%
    16:00 -8°C° 0 mm 1 mps 603 mmHg 65%
    17:00 -10°C° 0 mm 2 mps 603 mmHg 60%
    18:00 -12°C° 0 mm 2 mps 603 mmHg 54%
    19:00 -13°C° 0 mm 2 mps 603 mmHg 49%
    20:00 -13°C° 0 mm 3 mps 603 mmHg 47%
    21:00 -13°C° 0 mm 3 mps 604 mmHg 45%
    22:00 -13°C° 0 mm 3 mps 604 mmHg 43%
    23:00 -13°C° 0 mm 3 mps 604 mmHg 43%

    Day after tomorrow, 21 January, Tuesday

    Time Temperature Precipitation Wind Pressure Humidity
    00:00 -12°C° 0 mm 3 mps 604 mmHg 43%
    01:00 -12°C° 0 mm 3 mps 604 mmHg 44%
    02:00 -10°C° 0 mm 3 mps 604 mmHg 44%
    03:00 -10°C° 0 mm 3 mps 604 mmHg 45%
    04:00 -10°C° 0 mm 3 mps 604 mmHg 46%
    05:00 -9°C° 0 mm 3 mps 604 mmHg 47%
    06:00 -9°C° 0 mm 3 mps 604 mmHg 48%
    07:00 -9°C° 0 mm 3 mps 604 mmHg 48%
    08:00 -7°C° 0 mm 2 mps 605 mmHg 50%
    09:00 -5°C° 0 mm 2 mps 606 mmHg 52%
    10:00 -4°C° 0 mm 2 mps 606 mmHg 54%
    11:00 -3°C° 0 mm 2 mps 606 mmHg 56%
    12:00 0°C° 0 mm 1 mps 606 mmHg 59%
    13:00 +2°C° 0 mm 1 mps 607 mmHg 61%
    14:00 +1°C° 0 mm 1 mps 606 mmHg 61%
    15:00 0°C° 0 mm 1 mps 605 mmHg 61%
    16:00 -1°C° 0 mm 1 mps 605 mmHg 61%
    17:00 -4°C° 0 mm 2 mps 604 mmHg 58%
    18:00 -4°C° 0 mm 2 mps 604 mmHg 54%
    19:00 -5°C° 0 mm 2 mps 604 mmHg 51%
    20:00 -5°C° 0 mm 2 mps 604 mmHg 51%
    21:00 -5°C° 0 mm 2 mps 603 mmHg 50%
    22:00 -5°C° 0 mm 2 mps 603 mmHg 50%
    23:00 -5°C° 0 mm 2 mps 603 mmHg 50%

    22 January, Wednesday

    Time Temperature Precipitation Wind Pressure Humidity
    00:00 -5°C° 0 mm 2 mps 603 mmHg 50%
    01:00 -5°C° 0 mm 2 mps 603 mmHg 49%
    02:00 -5°C° 0 mm 2 mps 603 mmHg 49%
    03:00 -5°C° 0 mm 2 mps 602 mmHg 48%
    04:00 -5°C° 0 mm 2 mps 602 mmHg 48%
    05:00 -5°C° 0 mm 2 mps 602 mmHg 47%
    06:00 -5°C° 0 mm 2 mps 602 mmHg 46%
    07:00 -5°C° 0 mm 2 mps 601 mmHg 46%
    08:00 -2°C° 0 mm 1 mps 602 mmHg 47%
    09:00 -1°C° 0 mm 1 mps 603 mmHg 48%
    10:00 0°C° 0 mm 1 mps 603 mmHg 49%
    11:00 +1°C° 0 mm 1 mps 603 mmHg 56%
    12:00 +1°C° 0 mm 0 mps 603 mmHg 63%
    13:00 +2°C° 0 mm 0 mps 603 mmHg 69%
    14:00 +1°C° 0 mm 0 mps 603 mmHg 65%
    15:00 0°C° 0 mm 0 mps 602 mmHg 61%
    16:00 0°C° 0 mm 0 mps 601 mmHg 57%
    17:00 0°C° 0 mm 1 mps 601 mmHg 55%
    18:00 -1°C° 0 mm 1 mps 601 mmHg 52%
    19:00 -2°C° 0 mm 1 mps 601 mmHg 49%
    20:00 -2°C° 0 mm 1 mps 601 mmHg 47%
    21:00 -2°C° 0 mm 1 mps 601 mmHg 44%
    22:00 -2°C° 0 mm 1 mps 601 mmHg 41%
    23:00 -2°C° 0 mm 1 mps 601 mmHg 40%

    23 January, Thursday

    Time Temperature Precipitation Wind Pressure Humidity
    00:00 -2°C° 0 mm 1 mps 600 mmHg 39%
    01:00 -2°C° 0 mm 1 mps 600 mmHg 38%
    02:00 -2°C° 0 mm 1 mps 600 mmHg 37%
    03:00 -2°C° 0 mm 1 mps 600 mmHg 36%
    04:00 -2°C° 0 mm 1 mps 599 mmHg 35%
    05:00 -2°C° 0 mm 1 mps 599 mmHg 34%
    06:00 -4°C° 0 mm 2 mps 599 mmHg 33%
    07:00 -4°C° 0 mm 2 mps 599 mmHg 33%
    08:00 -3°C° 0 mm 2 mps 600 mmHg 36%
    09:00 -2°C° 0 mm 2 mps 600 mmHg 40%
    10:00 -1°C° 0 mm 2 mps 600 mmHg 43%
    11:00 +1°C° 0 mm 2 mps 600 mmHg 48%
    12:00 +1°C° 0 mm 2 mps 601 mmHg 53%
    13:00 +3°C° 0 mm 1 mps 601 mmHg 58%
    14:00 +2°C° 0 mm 1 mps 600 mmHg 57%
    15:00 +1°C° 0 mm 1 mps 600 mmHg 56%
    16:00 +1°C° 0 mm 1 mps 599 mmHg 55%
    17:00 -2°C° 0 mm 2 mps 599 mmHg 52%
    18:00 -3°C° 0 mm 2 mps 599 mmHg 48%
    19:00 -4°C° 0 mm 2 mps 598 mmHg 44%
    20:00 -4°C° 0 mm 2 mps 598 mmHg 44%
    21:00 -4°C° 0 mm 2 mps 598 mmHg 43%
    22:00 -5°C° 0 mm 2 mps 599 mmHg 42%
    23:00 -5°C° 0 mm 2 mps 598 mmHg 42%

    24 January, Friday

    Time Temperature Precipitation Wind Pressure Humidity
    00:00 -5°C° 0 mm 2 mps 598 mmHg 42%
    01:00 -5°C° 0 mm 2 mps 598 mmHg 42%
    02:00 -5°C° 0 mm 2 mps 597 mmHg 41%
    03:00 -5°C° 0 mm 2 mps 597 mmHg 40%
    04:00 -5°C° 0 mm 2 mps 597 mmHg 39%
    05:00 -5°C° 0 mm 2 mps 597 mmHg 39%
    06:00 -5°C° 0 mm 2 mps 597 mmHg 39%
    07:00 -5°C° 0 mm 2 mps 597 mmHg 39%
    08:00 -4°C° 0 mm 2 mps 597 mmHg 42%
    09:00 -3°C° 0 mm 2 mps 598 mmHg 46%
    10:00 -2°C° 0 mm 2 mps 598 mmHg 49%
    11:00 -1°C° 0 mm 2 mps 598 mmHg 52%
    12:00 +1°C° 0 mm 2 mps 598 mmHg 55%
    13:00 +2°C° 0 mm 2 mps 598 mmHg 58%
    14:00 +1°C° 0 mm 2 mps 597 mmHg 58%
    15:00 -1°C° 0 mm 3 mps 597 mmHg 58%
    16:00 -2°C° 0 mm 3 mps 596 mmHg 58%
    17:00 -4°C° 0 mm 3 mps 596 mmHg 58%
    18:00 -4°C° 0 mm 3 mps 595 mmHg 57%
    19:00 -5°C° 0 mm 4 mps 595 mmHg 56%
    20:00 -7°C° 0 mm 4 mps 595 mmHg 56%
    21:00 -6°C° 0 mm 3 mps 595 mmHg 57%
    22:00 -6°C° 0 mm 3 mps 595 mmHg 57%
    23:00 -6°C° 0 mm 3 mps 595 mmHg 59%
    Show more